EW8146 Weather Reports


time (UTC)temp
C
wind
direction
speed
KPH
gust
KPH
rain 1hr
cm
rain 24hr
cm
rain mn
cm
humidity
%
barometer
mb
20260506024613 22 290 0.0 11.3 0.00 0.00 0.00 27 1004.6
20260506023054 23 290 3.2 12.9 0.00 0.00 0.00 25 1004.4
20260506021554 23 286 3.2 19.3 0.00 0.00 0.00 24 1004.2
20260506020052 24 234 6.4 16.1 0.00 0.00 0.00 24 1004.0
20260506014551 25 257 8.0 20.9 0.00 0.00 0.00 23 1003.9
20260506013103 25 302 6.4 16.1 0.00 0.00 0.00 23 1003.9
20260506011603 25 281 0.0 20.9 0.00 0.00 0.00 24 1003.7
20260506010047 25 266 9.7 22.5 0.00 0.00 0.00 23 1003.7
20260506004546 25 285 8.0 27.4 0.00 0.00 0.00 23 1003.8
20260506003046 26 322 6.4 16.1 0.00 0.00 0.00 21 1003.7
20260506001546 26 325 4.8 25.7 0.00 0.00 0.00 23 1003.6
20260506000044 26 298 4.8 19.3 0.00 0.00 0.00 23 1003.6
20260505234544 26 286 8.0 17.7 0.00 0.00 0.00 23 1003.7
20260505233042 26 295 4.8 16.1 0.00 0.00 0.00 24 1003.7
20260505231543 26 326 8.0 19.3 0.00 0.00 0.00 25 1003.6
20260505230054 26 276 8.0 22.5 0.00 0.00 0.00 23 1003.8
20260505224540 26 276 6.4 22.5 0.00 0.00 0.00 22 1003.9
20260505223049 26 342 0.0 17.7 0.00 0.00 0.00 27 1004.0
20260505221537 25 316 1.6 11.3 0.00 0.00 0.00 27 1004.3
20260505220041 25 297 1.6 17.7 0.00 0.00 0.00 27 1004.5
20260505214532 25 300 1.6 16.1 0.00 0.00 0.00 29 1004.8
20260505213048 25 307 3.2 17.7 0.00 0.00 0.00 29 1004.9
20260505211530 25 330 3.2 16.1 0.00 0.00 0.00 30 1005.1
20260505210026 25 333 0.0 16.1 0.00 0.00 0.00 30 1005.3
20260505204525 25 304 0.0 12.9 0.00 0.00 0.00 30 1005.5
20260505203039 24 289 1.6 12.9 0.00 0.00 0.00 29 1005.7
20260505201524 24 283 0.0 9.7 0.00 0.00 0.00 30 1005.6
20260505200031 23 321 0.0 9.7 0.00 0.00 0.00 30 1005.9
20260505194518 23 314 1.6 12.9 0.00 0.00 0.00 32 1006.0
20260505193017 23 334 1.6 11.3 0.00 0.00 0.00 31 1006.2
20260505191516 23 279 0.0 6.4 0.00 0.00 0.00 31 1006.3
20260505190015 22 280 0.0 4.8 0.00 0.00 0.00 31 1006.6
20260505184516 22 284 1.6 9.7 0.00 0.00 0.00 34 1006.7
20260505183009 22 227 0.0 0.0 0.00 0.00 0.00 31 1006.9
20260505181508 21 278 1.6 8.0 0.00 0.00 0.00 35 1006.9
20260505180005 21 287 0.0 4.8 0.00 0.00 0.00 33 1007.0
20260505174504 21 322 0.0 4.8 0.00 0.00 0.00 35 1007.0
20260505173004 20 274 0.0 4.8 0.00 0.00 0.00 37 1007.0
20260505171600 20 347 0.0 1.6 0.00 0.00 0.00 36 1007.0
20260505170100 20 240 0.0 1.6 0.00 0.00 0.00 35 1006.8
20260505164604 20 100 0.0 0.0 0.00 0.00 0.00 35 1006.8
20260505163100 20 59 0.0 0.0 0.00 0.00 0.00 37 1006.8
20260505161552 19 330 0.0 1.6 0.00 0.00 0.00 39 1006.7
20260505153105 18 243 0.0 1.6 0.00 0.00 0.00 40 1006.6
20260505151554 18 336 0.0 0.0 0.00 0.00 0.00 45 1006.6
20260505124527 10 15 0.0 0.0 0.00 0.00 0.00 70 1004.6
20260505123022 9 98 0.0 0.0 0.00 0.00 0.00 71 1004.4
20260505121519 10 98 0.0 0.0 0.00 0.00 0.00 70 1004.2
20260505120017 10 312 0.0 0.0 0.00 0.00 0.00 69 1003.8
20260505114529 10 312 0.0 0.0 0.00 0.00 0.00 67 1003.6
20260505113012 10 269 0.0 0.0 0.00 0.00 0.00 66 1003.4
20260505111509 11 274 0.0 0.0 0.00 0.00 0.00 65 1003.2
20260505101559 13 295 0.0 0.0 0.00 0.00 0.00 53 1002.3
20260505100055 13 279 0.0 1.6 0.00 0.00 0.00 52 1002.1
20260505094553 13 275 0.0 4.8 0.00 0.00 0.00 52 1002.0
20260505093046 15 275 0.0 0.0 0.00 0.00 0.00 49 1002.0
20260505091554 15 278 0.0 8.0 0.00 0.00 0.00 47 1001.6
20260505090052 15 342 3.2 14.5 0.00 0.00 0.00 46 1001.4
20260505084538 16 298 0.0 9.7 0.00 0.00 0.00 45 1001.3
20260505083042 16 265 1.6 12.9 0.00 0.00 0.00 45 1001.2
20260505081550 16 267 1.6 11.3 0.00 0.00 0.00 47 1001.1
20260505080042 16 299 0.0 11.3 0.00 0.00 0.00 47 1001.1
20260505074530 16 280 1.6 12.9 0.00 0.00 0.00 47 1001.0
20260505073029 16 293 1.6 9.7 0.00 0.00 0.00 46 1001.1
20260505071529 16 282 0.0 6.4 0.00 0.00 0.00 45 1001.0
20260505070026 17 285 1.6 8.0 0.00 0.00 0.00 43 1000.9
20260505064520 17 288 0.0 6.4 0.00 0.00 0.00 43 1000.7
20260505063023 17 283 0.0 8.0 0.00 0.00 0.00 43 1000.6
20260505061526 17 309 0.0 8.0 0.00 0.00 0.00 41 1000.6
20260505060014 17 299 0.0 6.4 0.00 0.00 0.00 41 1000.5
20260505054627 17 288 0.0 6.4 0.00 0.00 0.00 41 1000.3
20260505053013 18 310 0.0 8.0 0.00 0.00 0.00 41 1000.2
20260505051512 18 286 0.0 4.8 0.00 0.00 0.00 43 1000.2
20260505041511 19 285 0.0 0.0 0.00 0.00 0.00 41 1000.2
20260505040009 20 290 0.0 4.8 0.00 0.00 0.00 38 1000.1
20260505034509 21 289 0.0 4.8 0.00 0.00 0.00 34 999.9
20260505033018 22 303 0.0 1.6 0.00 0.00 0.00 33 999.8
20260505031508 22 288 0.0 6.4 0.00 0.00 0.00 31 999.5